Погода в Герзе

Турция     41°48′07″N   35°11′30″E
темп.,
°C
ветер,
м/с
пор.,
м/с
влажн.,
%
обл.,
%
осадки,
мм/ч
давл.,
гПа
погр.,
м
22 января, пт
пт2200:00+2юз776111 0.0 1031123
03:00+2юз775944 0.0 1030121
06:00+3юз7759100 0.0 1029121
09:00+3юз775899 0.0 1029132
12:00+7юз665714 0.0 1029215
15:00+8юз565735 0.0 1026209
18:00+5юз665745 0.0 1026108
21:00+5юз775723 0.0 1026111
23 января, сб
сб2300:00+5юз77585 0.0 1026122
03:00+5юз885644 0.0 1025136
06:00+5юз8856100 0.0 1024139
09:00+6юз785790 0.0 1025126
12:00+9юз67581 0.0 1023143
15:00+10юз56590 0.0 1021137
18:00+7юз66600 0.0 102194
21:00+7юз676214 0.0 1020113
24 января, вс
вс2400:00+7юз776112 0.0 1020123
03:00+7юз785856 0.0 1018150
06:00+6юз785486 0.0 1017156
09:00+7юз895193 0.0 1018183
12:00+10юз7949100 0.0 1017263
15:00+11юз685070 0.0 1016249
18:00+8юз675572 0.0 1017134
21:00+8юз895461 0.0 1018152
25 января, пн
пн2500:00+8юз895478 0.0 1018161
03:00+8юз785585 0.0 1018131
06:00+8юз885539 0.0 1017130
09:00+8юз885463 0.0 1016152
12:00+10ююз5552100 0.0 1015173
15:00+10ююз4554100 0.0 1013133
18:00+8ююз345496 0.0 101379
21:00+8ююз555896 0.0 101382
26 января, вт
вт2600:00+7ююз6657100 0.0 101497
03:00+8ююз5661100 0.0 101491
06:00+8ююз5662100 0.0 101398
09:00+8ююз5661100 0.0 1013136
12:00+11зюз5860100 0.0 1015716
15:00+8ссз3489100 0.0 1015301
18:00+6вюв1295100 1.4 1016118
21:00+6ююв2294100 2.6 1017125